Weather History for Manhattan, KS

Change the Weather History Date:

Friday, July 5, 2013

  Actual Average Record
Temperature  
Mean Temperature 78 °F 78 °F  
Max Temperature 93 °F 90 °F 103 °F (2012)
Min Temperature 63 °F 66 °F 46 °F (1997)
Degree Days  
Heating Degree Days 0 0  
Month to date heating degree days 0 0  
Since 1 June heating degree days 9 11  
Since 1 July heating degree days 0 0  
Cooling Degree Days 13 13  
Month to date cooling degree days 36 65  
Year to date cooling degree days 490 435  
Since 1 June cooling degree days 354 335  
Growing Degree Days 28 (Base 50)    
Moisture  
Dew Point 58 °F    
Average Humidity 57    
Maximum Humidity 84    
Minimum Humidity 30    
Precipitation  
Precipitation T in 0.13 in 0.47 in (2010)
Month to date precipitation T 0.76  
Year to date precipitation 12.79 17.05  
Sea Level Pressure  
Sea Level Pressure 29.88 in    
Wind  
Wind Speed 8 mph (South)    
Max Wind Speed 24 mph    
Max Gust Speed 35 mph    
Visibility 10 miles    
Events Rain    
T = Trace of Precipitation, MM = Missing Value Source: NWS Daily Summary

Daily Weather History Graph

Daily Weather History Graph

Search for Another Location

Airport:

Trip Planner

Search our weather history database for the weather conditions in past years. The results will help you decide how hot, cold, wet, or windy it might be!

Date:

Astronomy

Jul. 05, 2013 Rise Set
Actual Time 6:06 AM CDT 8:55 PM CDT
Civil Twilight 5:34 AM CDT 9:27 PM CDT
Nautical Twilight 4:54 AM CDT 10:07 PM CDT
Astronomical Twilight 4:08 AM CDT 10:53 PM CDT
Moon 4:06 AM CDT (7/5) 6:52 PM CDT (7/5)
Length of Visible Light 15h 53m
Length of Day
14h 49m
Waning Crescent, 6% of the Moon is Illuminated
Jul 5
Waning Crescent
Jul 8
New
Jul 15
First Quarter
Jul 22
Full
Jul 29
Last Quarter

Hourly Weather History & Observations

Time (CDT) Temp. Heat Index Dew Point Humidity Pressure Visibility Wind Dir Wind Speed Gust Speed Precip Events Conditions
12:52 AM 72.0 °F - 57.0 °F 59% 29.91 in 10.0 mi South 8.1 mph - N/A   Clear
1:52 AM 71.1 °F - 57.9 °F 63% 29.91 in 10.0 mi SSW 4.6 mph - N/A   Clear
2:52 AM 69.1 °F - 59.0 °F 70% 29.90 in 10.0 mi SSW 5.8 mph - N/A   Partly Cloudy
3:52 AM 66.0 °F - 59.0 °F 78% 29.91 in 10.0 mi Calm Calm - N/A   Clear
4:52 AM 64.0 °F - 59.0 °F 84% 29.91 in 10.0 mi Calm Calm - N/A   Clear
5:52 AM 68.0 °F - 57.9 °F 70% 29.91 in 10.0 mi WSW 4.6 mph - N/A   Clear
6:52 AM 70.0 °F - 60.1 °F 71% 29.90 in 10.0 mi Variable 3.5 mph - 0.00 in Rain Light Rain
7:52 AM 73.0 °F - 61.0 °F 66% 29.91 in 10.0 mi SW 10.4 mph - 0.00 in   Clear
8:52 AM 73.0 °F - 61.0 °F 66% 29.92 in 9.0 mi Calm Calm - N/A   Partly Cloudy
9:52 AM 80.1 °F 81.2 °F 62.1 °F 54% 29.91 in 10.0 mi South 4.6 mph - N/A   Clear
10:52 AM 77.0 °F - 62.1 °F 60% 29.92 in 10.0 mi SSE 6.9 mph - N/A   Overcast
11:52 AM 88.0 °F 87.9 °F 61.0 °F 40% 29.89 in 10.0 mi SSW 10.4 mph - N/A   Clear
12:52 PM 91.0 °F 90.0 °F 57.9 °F 33% 29.88 in 10.0 mi SSW 13.8 mph 26.5 mph N/A   Clear
1:52 PM 91.9 °F 90.3 °F 55.9 °F 30% 29.86 in 10.0 mi SSW 16.1 mph 25.3 mph N/A   Clear
2:52 PM 91.9 °F 90.3 °F 55.9 °F 30% 29.85 in 10.0 mi South 17.3 mph 26.5 mph N/A   Clear
3:52 PM 91.9 °F 90.0 °F 55.0 °F 29% 29.85 in 10.0 mi South 16.1 mph 24.2 mph N/A   Clear
4:52 PM 91.9 °F 90.6 °F 57.0 °F 31% 29.84 in 10.0 mi SSE 15.0 mph 21.9 mph N/A   Clear
5:52 PM 91.0 °F 89.7 °F 57.0 °F 32% 29.82 in 10.0 mi South 13.8 mph 21.9 mph N/A   Clear
6:52 PM 88.0 °F 86.7 °F 57.0 °F 35% 29.82 in 10.0 mi South 9.2 mph - N/A   Clear
7:52 PM 87.1 °F 85.3 °F 55.0 °F 33% 29.83 in 10.0 mi South 9.2 mph - N/A   Clear
8:52 PM 80.1 °F 80.4 °F 57.0 °F 45% 29.84 in 10.0 mi SSE 5.8 mph - N/A   Clear
9:52 PM 78.1 °F - 57.0 °F 48% 29.85 in 10.0 mi South 4.6 mph - N/A   Clear
10:52 PM 75.9 °F - 57.0 °F 52% 29.86 in 10.0 mi South 5.8 mph - N/A   Clear
11:52 PM 73.9 °F - 57.0 °F 55% 29.86 in 10.0 mi South 3.5 mph - N/A   Clear